OBJECT X, 62398

Orbit data source: Space-Track

You're viewing an Uncataloged Satellite

Recently launched and/or uncataloged satellites may have evolving metadata. Metadata may include but not limited to: Owner, Maufacturer, Bus, Motor, and Mission.

OBJECT X, 62398 is a satellite in LEO that was launched on Sat, 21 Dec 2024 UTC via an FALCON 9 launch vehicle from the Air Force Western Test Range (AFWTR). Unknown objects in Earth's orbit typically refer to objects detected orbiting the Earth but have not yet been identified or cataloged. These objects could be anything from previously untracked satellites, spent rocket stages, debris from satellite collisions, or even natural meteoroids temporarily captured by Earth's gravity.

Loading next visibility...
Identifier
62398, 2024-247X
Orbit
LEO
Country
Flag of TBDTBD
Related business
None
Manufacturer
Unknown
Mission
Operational Commercial Communications
Bus & Motor
Unknown
Mass
Unknown
Launch date (UTC)
2024-12-21 (10 months ago)
Launch vehicle
FALCON 9
Launch site
Air Force Western Test Range (AFWTR)
Object type
Unknown
Shape & HBR
Box, 0.0 m
Radar Cross Section
0.004 m², Small (<0.1 m²)

Expand to show TLE details & history
Last TLE update: 11 hours ago

TLE from 11 hours ago
0 OBJECT X
1 62398U 24247X   25300.79861262  .00074870  00000-0  15164-2 0  9993
2 62398  44.9978  97.3274 0012570 256.2686 103.6805 15.45474247 47718
Epoch: 2025-10-27T19:10Z
TLE epoch observation values (Epoch: 2025-10-27T19:10:00.130Z)
Latitude
Longitude
133.43158°
Altitude
432.017 km
Speed
7.653 km/s
True Right ascension
06h 29m 18s
True Declination
0° 00' 00"
Sunlit
Object was in full shadow at epoch
Visualization orbit readout
Latitude
Unknown
Longitude
Unknown
Altitude
Unknown
Speed
Unknown
Apparent Right ascension
Unknown
Apparent Declination
Unknown
Sunlit
N/A
Visualization observer readout
Local Sidereal Time
01:31:45
Azimuth
Unknown
Elevation
Unknown
Doppler factor
Unknown
Orbital elements
Apogee altitude
440.167 km
Perigee altitude
423.047 km
Semi-major axis
6,809.744 km
Eccentricity
0.00126
Inclination
44.9978°
RAAN
97.3274°
Arg. of periapsis
256.2686°
True anomaly
103.8204°
Mean anomaly
103.6805°
Eccentric anomaly
103.75046°
Mean motion
3.86231 °/min
Orbital period
93.21 mins
BSTAR
0.0015164
Loading maneuver chart data...
Computing Atmospheric mass density...
Loading historical data...
Loading historical data...
Loading historical data...
Loading historical data...
Loading historical data...
Loading historical data...
Loading historical data...

Documentation

Showing up to 5 results
|